DW1384 Weather Reports


time (UTC)temp
C
wind
direction
speed
KPH
gust
KPH
rain 1hr
cm
rain 24hr
cm
rain mn
cm
humidity
%
barometer
mb
20260904005253 19 125 0.0 0.0 0.00 0.00 0.00 87 1016.6
20260904005018 19 121 0.0 0.0 0.00 0.00 0.00 87 1016.7
20260904004253 19 124 0.0 0.0 0.00 0.00 0.00 86 1016.7
20260904003752 19 117 0.0 0.0 0.00 0.00 0.00 86 1016.7
20260904003250 19 251 0.0 0.0 0.00 0.00 0.00 86 1016.7
20260904002747 19 136 0.0 0.0 0.00 0.00 0.00 86 1016.7
20260904002245 19 221 0.0 0.0 0.00 0.00 0.00 86 1016.7
20260904002007 19 239 0.0 0.0 0.00 0.00 0.00 86 1016.7
20260904001243 19 99 0.0 0.0 0.00 0.00 0.00 86 1016.7
20260904000743 19 99 0.0 0.0 0.00 0.00 0.00 86 1017.0
20260904000241 19 142 0.0 0.0 0.00 0.00 0.00 86 1017.0
20260903235741 19 208 0.0 0.0 0.00 0.00 0.00 86 1017.1
20260903235241 19 130 0.0 0.0 0.00 0.00 0.00 86 1017.2
20260903234953 19 261 0.0 0.0 0.00 0.00 0.00 87 1017.2
20260903234241 19 203 0.0 0.0 0.00 0.00 0.00 86 1017.2
20260903234209 19 258 0.0 0.0 0.00 0.00 0.00 86 1017.2
20260903233217 19 114 0.0 0.0 0.00 0.00 0.00 86 1017.2
20260903232710 19 59 0.0 0.0 0.00 0.00 0.00 86 1017.2
20260903232427 19 303 0.0 0.0 0.00 0.00 0.00 86 1017.3
20260903231658 19 181 0.0 0.0 0.00 0.00 0.00 86 1017.3
20260903231152 19 174 0.0 0.0 0.00 0.00 0.00 86 1017.3
20260903230922 19 184 0.0 0.0 0.00 0.00 0.00 86 1017.5
20260903230414 19 168 0.0 0.0 0.00 0.00 0.00 86 1017.5
20260903225650 19 204 0.0 0.0 0.00 0.00 0.00 86 1017.4
20260903225407 19 219 0.0 0.0 0.00 0.00 0.00 85 1017.5
20260903224645 19 132 0.0 0.0 0.00 0.00 0.00 85 1017.5
20260903224402 19 126 0.0 0.0 0.00 0.00 0.00 85 1017.5
20260903223645 19 136 0.0 0.0 0.00 0.00 0.00 85 1017.7
20260903223146 19 136 0.0 0.0 0.00 0.00 0.00 85 1017.6
20260903222641 19 168 0.0 0.0 0.00 0.00 0.00 85 1017.6
20260903222139 19 180 0.0 0.0 0.00 0.00 0.00 85 1017.8
20260903221639 19 176 0.0 0.0 0.00 0.00 0.00 85 1017.9
20260903221134 19 180 0.0 0.0 0.00 0.00 0.00 85 1018.1
20260903220633 19 176 0.0 0.0 0.00 0.00 0.00 85 1018.2
20260903220131 19 231 0.0 0.0 0.00 0.00 0.00 85 1018.3
20260903215628 19 237 0.0 0.0 0.00 0.00 0.00 85 1018.2
20260903215128 19 98 0.0 0.0 0.00 0.00 0.00 85 1018.2
20260903214629 19 165 0.0 0.0 0.00 0.00 0.00 85 1018.3
20260903214129 19 136 0.0 0.0 0.00 0.00 0.00 85 1018.3
20260903213628 19 155 0.0 0.0 0.00 0.00 0.00 85 1018.4
20260903213128 19 147 0.0 0.0 0.00 0.00 0.00 85 1018.3
20260903212628 18 161 0.0 0.0 0.00 0.00 0.00 85 1018.3
20260903212128 18 116 0.0 0.0 0.00 0.00 0.00 85 1018.3
20260903211628 18 109 0.0 0.0 0.00 0.00 0.00 85 1018.5
20260903211129 18 109 0.0 0.0 0.00 0.00 0.00 85 1018.5
20260903210628 18 108 0.0 0.0 0.00 0.00 0.00 85 1018.4
20260903210128 18 108 0.0 0.0 0.00 0.00 0.00 85 1018.5
20260903205849 18 108 0.0 0.0 0.00 0.00 0.00 85 1018.5
20260903205124 18 109 0.0 0.0 0.00 0.00 0.00 85 1018.5
20260903204845 18 117 0.0 0.0 0.00 0.00 0.00 85 1018.5
20260903204125 18 114 0.0 0.0 0.00 0.00 0.00 85 1018.4
20260903203624 18 111 0.0 0.0 0.00 0.00 0.00 85 1018.4
20260903203124 18 97 0.0 0.0 0.00 0.00 0.00 85 1018.5
20260903202624 18 97 0.0 0.0 0.00 0.00 0.00 85 1018.5
20260903202124 18 97 0.0 0.0 0.00 0.00 0.00 85 1018.5
20260903201850 18 97 0.0 0.0 0.00 0.00 0.00 85 1018.6
20260903201120 18 99 0.0 0.0 0.00 0.00 0.00 85 1018.4
20260903200620 18 99 0.0 0.0 0.00 0.00 0.00 85 1018.4
20260903200121 18 142 0.0 0.0 0.00 0.00 0.00 85 1018.4
20260903195621 18 142 0.0 0.0 0.00 0.00 0.00 85 1018.2
20260903195120 18 141 0.0 0.0 0.00 0.00 0.00 85 1018.2
20260903194621 18 112 0.0 0.0 0.00 0.00 0.00 85 1018.1
20260903194121 18 111 0.0 0.0 0.00 0.00 0.00 85 1018.1
20260903193621 18 80 0.0 0.0 0.00 0.00 0.00 85 1018.2
20260903193340 18 80 0.0 0.0 0.00 0.00 0.00 85 1018.2
20260903192616 18 80 0.0 0.0 0.00 0.00 0.00 85 1018.3
20260903192117 18 80 0.0 0.0 0.00 0.00 0.00 85 1018.4
20260903191617 18 80 0.0 0.0 0.00 0.00 0.00 85 1018.4
20260903191116 18 309 0.0 0.0 0.00 0.00 0.00 84 1018.6
20260903190616 18 309 0.0 0.0 0.00 0.00 0.00 84 1018.6
20260903190350 18 307 0.0 0.0 0.00 0.00 0.00 84 1018.6
20260903185619 18 294 0.0 0.0 0.00 0.00 0.00 84 1018.8
20260903185117 19 274 0.0 0.0 0.00 0.00 0.00 84 1018.6
20260903184617 19 274 0.0 0.0 0.00 0.00 0.00 84 1018.3
20260903184112 19 269 0.0 0.0 0.00 0.00 0.00 83 1018.3
20260903183612 19 263 0.0 0.0 0.00 0.00 0.00 83 1018.4
20260903183112 19 202 0.0 0.0 0.00 0.00 0.00 83 1018.0
20260903182614 19 166 0.0 0.0 0.00 0.00 0.00 83 1017.9
20260903182112 19 168 0.0 0.0 0.00 0.00 0.00 83 1017.9
20260903181612 19 168 0.0 0.0 0.00 0.00 0.00 83 1017.9
20260903181112 19 175 0.0 0.0 0.00 0.00 0.00 83 1017.8
20260903180612 19 169 0.0 0.0 0.00 0.00 0.00 83 1017.7
20260903180115 19 178 0.0 0.0 0.00 0.00 0.00 83 1017.7
20260903175608 19 196 0.0 0.0 0.00 0.00 0.00 83 1017.9
20260903175108 19 134 0.0 0.0 0.00 0.00 0.00 83 1017.8
20260903174608 19 134 0.0 0.0 0.00 0.00 0.00 83 1018.3
20260903174109 19 260 0.0 0.0 0.00 0.00 0.00 83 1018.3
20260903173608 19 151 0.0 0.0 0.00 0.00 0.00 83 1018.2
20260903173108 20 153 0.0 0.0 0.00 0.00 0.00 83 1018.2
20260903172609 20 142 0.0 0.0 0.00 0.00 0.00 82 1018.1
20260903172108 20 141 0.0 0.0 0.00 0.00 0.00 82 1018.2
20260903171833 20 143 0.0 0.0 0.00 0.00 0.00 82 1018.1
20260903171109 20 169 0.0 0.0 0.00 0.00 0.00 82 1017.9
20260903170609 20 199 0.0 0.0 0.00 0.00 0.00 82 1018.0
20260903170114 20 224 0.0 0.0 0.00 0.00 0.00 82 1017.9
20260903165610 20 286 0.0 0.0 0.00 0.00 0.00 82 1017.9
20260903165109 20 209 0.0 0.0 0.00 0.00 0.00 82 1017.8
20260903164608 20 191 0.0 0.0 0.00 0.00 0.00 82 1017.7
20260903164110 20 252 0.0 0.0 0.00 0.00 0.00 82 1017.8
20260903163830 20 210 0.0 0.0 0.00 0.00 0.00 82 1017.8
20260903163108 20 255 0.0 0.0 0.00 0.00 0.00 81 1017.9
20260903162608 20 193 0.0 0.0 0.00 0.00 0.00 81 1017.9
20260903162108 20 166 0.0 0.0 0.00 0.00 0.00 81 1017.9
20260903161608 20 153 0.0 0.0 0.00 0.00 0.00 82 1017.9
20260903161334 20 161 0.0 0.0 0.00 0.00 0.00 82 1018.1
20260903160830 20 274 0.0 0.0 0.00 0.00 0.00 82 1018.0
20260903160108 20 171 0.0 0.0 0.00 0.00 0.00 82 1018.1
20260903155604 20 176 0.0 0.0 0.00 0.00 0.00 82 1018.0
20260903155100 20 228 0.0 0.0 0.00 0.00 0.00 82 1018.0
20260903154601 20 175 0.0 0.0 0.00 0.00 0.00 81 1018.0
20260903154321 20 226 0.0 0.0 0.00 0.00 0.00 81 1018.2
20260903153600 20 226 0.0 0.0 0.00 0.00 0.00 81 1018.1
20260903153100 20 230 0.0 0.0 0.00 0.00 0.00 81 1018.2
20260903152558 20 259 0.0 0.0 0.00 0.00 0.00 81 1018.4
20260903152056 20 218 0.0 0.0 0.00 0.00 0.00 81 1018.4
20260903151556 20 281 0.0 0.0 0.00 0.00 0.00 82 1018.4
20260903151058 20 248 0.0 0.0 0.00 0.00 0.00 82 1018.1
20260903150609 20 150 0.0 0.0 0.00 0.00 0.00 81 1018.1
20260903150331 20 255 0.0 0.0 0.00 0.00 0.00 81 1018.2
20260903145558 20 183 0.0 0.0 0.00 0.00 0.00 81 1018.0
20260903145056 20 259 0.0 0.0 0.00 0.00 0.00 81 1018.0
20260903144556 20 246 0.0 0.0 0.00 0.00 0.00 81 1018.3
20260903144055 20 331 0.0 0.0 0.00 0.00 0.00 81 1018.3
20260903143549 20 274 0.0 0.0 0.00 0.00 0.00 82 1018.2
20260903143044 20 30 0.0 0.0 0.00 0.00 0.00 82 1018.3
20260903142540 20 75 0.0 0.0 0.00 0.00 0.00 83 1018.4
20260903142032 20 260 0.0 0.0 0.00 0.00 0.00 83 1018.4
20260903141525 19 303 0.0 0.0 0.00 0.00 0.00 83 1018.4
20260903141500 19 60 0.0 0.0 0.00 0.00 0.00 83 1018.5
20260903140734 19 343 0.0 0.0 0.00 0.00 0.00 84 1018.3
20260903140008 19 283 0.0 0.0 0.00 0.00 0.00 84 1018.5
20260903135501 19 40 0.0 0.0 0.00 0.00 0.00 85 1018.4
20260903134958 19 325 0.0 0.0 0.00 0.00 0.00 85 1018.5
20260903134710 19 267 0.0 0.0 0.00 0.00 0.00 86 1018.6
20260903133944 18 174 0.0 0.0 0.00 0.00 0.00 87 1018.5
20260903133437 18 26 0.0 0.0 0.00 0.00 0.00 87 1018.6
20260903132932 18 348 0.0 0.0 0.00 0.00 0.00 87 1018.6
20260903132426 18 241 0.0 0.0 0.00 0.00 0.00 87 1018.6
20260903131919 18 237 0.0 0.0 0.00 0.00 0.00 87 1018.7
20260903131413 18 184 0.0 0.0 0.00 0.00 0.00 88 1018.5
20260903130908 18 282 0.0 0.0 0.00 0.00 0.00 88 1018.5
20260903130402 17 116 0.0 0.0 0.00 0.00 0.00 88 1018.5
20260903125920 17 231 0.0 0.0 0.00 0.00 0.00 88 1018.5
20260903125855 17 180 0.0 0.0 0.00 0.00 0.00 88 1018.4
20260903125541 17 111 0.0 0.0 0.00 0.00 0.00 88 1018.3
20260903124338 17 72 0.0 0.0 0.00 0.00 0.00 88 1018.4
20260903123833 17 64 0.0 0.0 0.00 0.00 0.00 88 1018.4
20260903123606 17 74 0.0 0.0 0.00 0.00 0.00 88 1018.4
20260903122820 17 214 0.0 0.0 0.00 0.00 0.00 88 1018.4
20260903122313 16 273 0.0 0.0 0.00 0.00 0.00 88 1018.4
20260903121807 16 219 0.0 0.0 0.00 0.00 0.00 88 1018.4
20260903121301 16 208 0.0 0.0 0.00 0.00 0.00 88 1018.4
20260903120756 16 179 0.0 0.0 0.00 0.00 0.00 88 1018.3
20260903120249 16 165 0.0 0.0 0.00 0.00 0.00 88 1018.4
20260903115743 16 166 0.0 0.0 0.00 0.00 0.00 87 1018.3
20260903115502 16 114 0.0 0.0 0.00 0.00 0.00 87 1018.3
20260903114743 16 157 0.0 0.0 0.00 0.00 0.00 87 1018.3
20260903114501 16 155 0.0 0.0 0.00 0.00 0.00 87 1018.3
20260903113744 16 158 0.0 0.0 0.00 0.00 0.00 87 1018.5
20260903113240 16 156 0.0 0.0 0.00 0.00 0.00 87 1018.6
20260903112741 16 176 0.0 0.0 0.00 0.00 0.00 87 1018.8
20260903112237 16 198 0.0 0.0 0.00 0.00 0.00 87 1018.6
20260903111741 16 214 0.0 0.0 0.00 0.00 0.00 86 1018.5
20260903111225 16 170 0.0 0.0 0.00 0.00 0.00 86 1018.5
20260903110940 16 189 0.0 0.0 0.00 0.00 0.00 86 1018.5
20260903110217 16 217 0.0 0.0 0.00 0.00 0.00 86 1018.4
20260903105704 16 106 0.0 0.0 0.00 0.00 0.00 87 1018.5
20260903105155 16 233 0.0 0.0 0.00 0.00 0.00 87 1018.5
20260903104643 16 129 0.0 0.0 0.00 0.00 0.00 87 1018.4
20260903104128 16 132 0.0 0.0 0.00 0.00 0.00 87 1018.3
20260903103617 16 115 0.0 0.0 0.00 0.00 0.00 87 1018.4
20260903103103 16 146 0.0 0.0 0.00 0.00 0.00 87 1018.5
20260903102551 16 154 0.0 0.0 0.00 0.00 0.00 87 1018.5
20260903102038 16 130 0.0 0.0 0.00 0.00 0.00 87 1018.6
20260903101527 15 126 0.0 0.0 0.00 0.00 0.00 87 1018.7
20260903101027 15 116 0.0 0.0 0.00 0.00 0.00 87 1018.6
20260903100458 15 111 0.0 0.0 0.00 0.00 0.00 87 1018.5
20260903095948 15 147 0.0 0.0 0.00 0.00 0.00 87 1018.8
20260903095437 15 148 0.0 0.0 0.00 0.00 0.00 86 1018.6
20260903095142 15 122 0.0 0.0 0.00 0.00 0.00 86 1018.4
20260903094411 15 149 0.0 0.0 0.00 0.00 0.00 86 1018.4
20260903093855 15 161 0.0 0.0 0.00 0.00 0.00 86 1018.7
20260903093602 15 129 0.0 0.0 0.00 0.00 0.00 85 1018.4
20260903092841 15 101 0.0 0.0 0.00 0.00 0.00 84 1018.8
20260903092319 16 174 0.0 0.0 0.00 0.00 0.00 84 1018.8
20260903091732 16 174 0.0 0.0 0.00 0.00 0.00 83 1018.7
20260903091231 16 163 0.0 0.0 0.00 0.00 0.00 82 1018.6
20260903090729 17 186 0.0 0.0 0.00 0.00 0.00 79 1018.9
20260903090151 17 161 0.0 0.0 0.00 0.00 0.00 78 1018.9
20260903085620 17 162 0.0 0.0 0.00 0.00 0.00 77 1018.5
20260903085105 17 190 0.0 0.0 0.00 0.00 0.00 76 1018.4
20260903084818 17 135 0.0 0.0 0.00 0.00 0.00 77 1018.5
20260903084041 17 176 0.0 0.0 0.00 0.00 0.00 77 1018.3
20260903083527 17 133 0.0 0.0 0.00 0.00 0.00 78 1018.4
20260903083229 17 157 0.0 0.0 0.00 0.00 0.00 81 1018.7
20260903082457 17 161 0.0 0.0 0.00 0.00 0.00 82 1018.7
20260903082205 16 166 0.0 0.0 0.00 0.00 0.00 84 1018.6
20260903081427 16 183 0.0 0.0 0.00 0.00 0.00 86 1018.5
20260903080911 16 183 0.0 0.0 0.00 0.00 0.00 87 1018.7
20260903080533 16 203 0.0 0.0 0.00 0.00 0.00 88 1018.8
20260903080217 15 203 0.0 0.0 0.00 0.00 0.00 88 1018.7
20260903075231 15 203 0.0 0.0 0.00 0.00 0.00 88 1018.8
20260903074717 15 203 0.0 0.0 0.00 0.00 0.00 88 1018.7
20260903074424 15 203 0.0 0.0 0.00 0.00 0.00 89 1018.9
20260903073653 15 203 0.0 0.0 0.00 0.00 0.00 89 1018.9
20260903073138 15 203 0.0 0.0 0.00 0.00 0.00 89 1018.8
20260903072628 15 203 0.0 0.0 0.00 0.00 0.00 89 1018.7
20260903072110 14 203 0.0 0.0 0.00 0.00 0.00 89 1018.7
20260903071558 14 203 0.0 0.0 0.00 0.00 0.00 89 1018.7
20260903071040 14 203 0.0 0.0 0.00 0.00 0.00 89 1018.7
20260903070521 13 203 0.0 0.0 0.00 0.00 0.00 89 1018.7
20260903070008 13 203 0.0 0.0 0.00 0.00 0.00 90 1019.0
20260903065437 13 203 0.0 0.0 0.00 0.00 0.00 89 1018.9
20260903064648 13 203 0.0 0.0 0.00 0.00 0.00 90 1018.9
20260903064145 13 203 0.0 0.0 0.00 0.00 0.00 90 1018.9
20260903063645 13 203 0.0 0.0 0.00 0.00 0.00 90 1018.7
20260903063144 13 203 0.0 0.0 0.00 0.00 0.00 90 1018.9
20260903062909 13 203 0.0 0.0 0.00 0.00 0.00 90 1018.9
20260903062143 13 203 0.0 0.0 0.00 0.00 0.00 90 1018.8
20260903061904 12 203 0.0 0.0 0.00 0.00 0.00 90 1018.9
20260903061142 12 203 0.0 0.0 0.00 0.00 0.00 90 1018.7
20260903060639 12 203 0.0 0.0 0.00 0.00 0.00 90 1018.5
20260903060402 12 203 0.0 0.0 0.00 0.00 0.00 90 1018.4
20260903055640 12 203 0.0 0.0 0.00 0.00 0.00 90 1018.4
20260903055140 12 203 0.0 0.0 0.00 0.00 0.00 90 1018.3
20260903054640 12 189 0.0 0.0 0.00 0.00 0.00 90 1018.4
20260903054142 12 189 0.0 0.0 0.00 0.00 0.00 90 1018.6
20260903053637 12 189 0.0 0.0 0.00 0.00 0.00 90 1018.9
20260903053408 12 121 0.0 0.0 0.00 0.00 0.00 90 1018.9
20260903052902 12 121 0.0 0.0 0.00 0.00 0.00 90 1018.9
20260903052136 12 121 0.0 0.0 0.00 0.00 0.00 90 1019.1
20260903051636 12 121 0.0 0.0 0.00 0.00 0.00 90 1019.2
20260903051625 12 121 0.0 0.0 0.00 0.00 0.00 89 1019.0
20260903050635 12 121 0.0 0.0 0.00 0.00 0.00 89 1018.9
20260903050133 12 121 0.0 0.0 0.00 0.00 0.00 89 1018.9
20260903045632 12 121 0.0 0.0 0.00 0.00 0.00 89 1018.8
20260903045132 12 121 0.0 0.0 0.00 0.00 0.00 89 1018.9
20260903044632 12 121 0.0 0.0 0.00 0.00 0.00 89 1018.9
20260903044131 12 121 0.0 0.0 0.00 0.00 0.00 89 1018.9
20260903043625 12 121 0.0 0.0 0.00 0.00 0.00 90 1018.9
20260903043346 12 121 0.0 0.0 0.00 0.00 0.00 90 1018.9
20260903042624 12 121 0.0 0.0 0.00 0.00 0.00 90 1018.9
20260903042348 12 121 0.0 0.0 0.00 0.00 0.00 90 1018.9
20260903041840 12 121 0.0 0.0 0.00 0.00 0.00 90 1019.1
20260903041124 12 121 0.0 0.0 0.00 0.00 0.00 90 1019.2
20260903040624 12 121 0.0 0.0 0.00 0.00 0.00 90 1019.4
20260903040123 12 121 0.0 0.0 0.00 0.00 0.00 90 1019.3
20260903035621 12 122 0.0 0.0 0.00 0.00 0.00 90 1019.4
20260903035121 12 121 0.0 0.0 0.00 0.00 0.00 90 1019.4
20260903034622 11 121 0.0 0.0 0.00 0.00 0.00 90 1019.4
20260903034120 11 121 0.0 0.0 0.00 0.00 0.00 90 1019.3
20260903033621 11 123 0.0 0.0 0.00 0.00 0.00 90 1019.4
20260903033119 11 123 0.0 0.0 0.00 0.00 0.00 90 1019.4
20260903032619 11 123 0.0 0.0 0.00 0.00 0.00 90 1019.4
20260903032119 11 123 0.0 0.0 0.00 0.00 0.00 90 1019.4
20260903031619 11 123 0.0 0.0 0.00 0.00 0.00 90 1019.6
20260903031122 11 123 0.0 0.0 0.00 0.00 0.00 90 1019.5
20260903030838 11 123 0.0 0.0 0.00 0.00 0.00 90 1019.5
20260903030119 11 123 0.0 0.0 0.00 0.00 0.00 90 1019.6
20260903025619 11 123 0.0 0.0 0.00 0.00 0.00 90 1019.6
20260903025120 11 123 0.0 0.0 0.00 0.00 0.00 90 1019.6
20260903024620 11 122 0.0 0.0 0.00 0.00 0.00 90 1019.7
20260903024118 11 122 0.0 0.0 0.00 0.00 0.00 90 1019.6
20260903023618 11 120 0.0 0.0 0.00 0.00 0.00 90 1019.7
20260903023341 11 119 0.0 0.0 0.00 0.00 0.00 90 1019.8
20260903022617 11 119 0.0 0.0 0.00 0.00 0.00 90 1019.8
20260903022117 11 119 0.0 0.0 0.00 0.00 0.00 90 1019.9
20260903021612 11 119 0.0 0.0 0.00 0.00 0.00 90 1020.0
20260903021335 11 119 0.0 0.0 0.00 0.00 0.00 90 1020.0
20260903020600 11 119 0.0 0.0 0.00 0.00 0.00 90 1020.1
20260903020110 11 119 0.0 0.0 0.00 0.00 0.00 90 1020.1
20260903015559 11 119 0.0 0.0 0.00 0.00 0.00 90 1020.1
20260903015057 11 126 0.0 0.0 0.00 0.00 0.00 90 1020.1
20260903015049 11 126 0.0 0.0 0.00 0.00 0.00 90 1020.2
20260903014057 11 126 0.0 0.0 0.00 0.00 0.00 90 1020.2
20260903013557 11 126 0.0 0.0 0.00 0.00 0.00 89 1020.2
20260903013058 11 126 0.0 0.0 0.00 0.00 0.00 89 1020.3
20260903012553 11 126 0.0 0.0 0.00 0.00 0.00 89 1020.3
20260903012054 11 125 0.0 0.0 0.00 0.00 0.00 89 1020.2
20260903012033 11 123 0.0 0.0 0.00 0.00 0.00 90 1020.3
20260903011053 11 122 0.0 0.0 0.00 0.00 0.00 90 1020.3
20260903010816 11 122 0.0 0.0 0.00 0.00 0.00 89 1020.4
20260903010105 11 122 0.0 0.0 0.00 0.00 0.00 89 1020.4
20260903005815 11 123 0.0 0.0 0.00 0.00 0.00 89 1020.4